Location: Copper Breaks State Park
(34.1132°N, 99.7492°W)
Time: 09:16:12
(UTC-06:00)

Amateur Radio Satellites - All Passes

Search period start: 24 January 2017 08:46
Search period end: 25 January 2017 08:46
Location: Copper Breaks State Park, 34.1132°N, 99.7492°W

Satellite Date Start Highest point End Downlink Frequencies (MHz)
Time Altitude Azimuth
NOAA 18 24 Jan 08:53:36 08:57:04 17° 296° (WNW) 09:00:32 137.9125
CUBEBUG 2 24 Jan 09:02:58 09:07:22 73° 284° (WNW) 09:11:55 437.445
FUNcube-1 24 Jan 09:05:34 09:09:43 37° 98° (E) 09:13:55 145.935
COMPASS 1 24 Jan 09:12:53 09:16:57 49° 285° (WNW) 09:20:58 437.405
CANX-2 24 Jan 09:15:06 09:17:58 18° 291° (WNW) 09:20:50 2200.000
SEEDS 24 Jan 09:16:15 09:19:56 29° 288° (WNW) 09:23:34 437.485
AAUSAT CUBESAT 2 24 Jan 09:19:38 09:23:43 54° 284° (WNW) 09:27:45 437.432
HO-68 24 Jan 09:20:53 09:27:28 41° 293° (WNW) 09:34:01 435.675
UWE-3 24 Jan 09:22:10 09:26:37 71° 284° (WNW) 09:31:10 435.000/436.395/437.385
JAS-2 24 Jan 09:26:51 09:28:39 12° 59° (ENE) 09:30:31 435.910
ZACube-1 24 Jan 09:31:00 09:35:29 84° 105° (ESE) 09:40:00 437.345
PRISM 24 Jan 09:41:10 09:45:10 47° 260° (W) 09:49:12 437.425
PCSat 24 Jan 09:47:52 09:53:19 76° 64° (ENE) 09:58:43 145.827
UNISAT 6 24 Jan 09:48:56 09:53:03 52° 75° (ENE) 09:57:12 437.425
DELFI C3 24 Jan 09:58:12 10:01:59 41° 99° (E) 10:05:43 145.870
Oscar 11 24 Jan 09:59:27 10:03:42 53° 285° (WNW) 10:07:56 145.826/435.025
TIGRISAT 24 Jan 10:00:47 10:05:00 68° 76° (ENE) 10:09:14 435.000
ANTELSAT 24 Jan 10:17:10 10:21:24 70° 259° (WSW) 10:25:39 437.575/2403.000
QB50P1 24 Jan 10:25:51 10:26:34 10° 66° (ENE) 10:27:17 145.935-145.965
POLYITAN 1 24 Jan 10:30:25 10:32:07 12° 66° (ENE) 10:33:48 437.675
QB50P2 24 Jan 10:31:22 10:33:30 14° 67° (ENE) 10:35:37 145.880/145.840
HUMSAT D 24 Jan 10:38:57 10:43:15 73° 101° (ESE) 10:47:32 437.325/437.525
FUNcube-1 24 Jan 10:42:47 10:45:38 17° 291° (WNW) 10:48:29 145.935
POPSAT HIP 1 24 Jan 10:50:35 10:53:43 21° 70° (ENE) 10:56:52 437.405
RS-15 24 Jan 10:52:45 11:02:08 27° 258° (WSW) 11:11:15 29.354- 29.394
DUCHIFAT 1 24 Jan 10:55:47 10:58:52 20° 70° (ENE) 11:01:58 145.980
NANOSAT C BR1 24 Jan 11:03:11 11:06:44 28° 71° (ENE) 11:10:17 145.865
JAS-2 24 Jan 11:07:25 11:12:44 79° 257° (WSW) 11:18:38 435.910
ESTCUBE 1 24 Jan 11:08:17 11:11:12 17° 94° (E) 11:14:06 437.505/2401.250
BUGSAT 1 24 Jan 11:14:43 11:15:29 10° 66° (ENE) 11:16:15 437.445
BY70-1 24 Jan 11:16:01 11:18:50 33° 98° (E) 11:21:25 436.1900
PCSat 24 Jan 11:34:33 11:35:58 11° 258° (WSW) 11:37:22 145.827
DELFI C3 24 Jan 11:34:54 11:36:21 12° 293° (WNW) 11:37:47 145.870
CUBEBUG 1 24 Jan 11:35:03 11:38:04 18° 95° (E) 11:41:04 437.445
AO-85 24 Jan 11:49:20 11:51:34 13° 109° (ESE) 11:53:44 145.980
JUGNU 24 Jan 11:50:02 11:52:36 13° 166° (SSE) 11:55:10 437.505
QB50P1 24 Jan 11:57:43 12:01:48 54° 260° (W) 12:05:55 145.935-145.965
AISAT 24 Jan 12:02:53 12:06:28 24° 96° (E) 12:10:02 437.250
50 SAT 24 Jan 12:02:56 12:04:48 14° 94° (E) 12:06:40 437.505
POLYITAN 1 24 Jan 12:03:27 12:07:27 45° 261° (W) 12:11:29 437.675
QB50P2 24 Jan 12:04:57 12:08:54 40° 261° (W) 12:12:51 145.880/145.840
POPSAT HIP 1 24 Jan 12:25:51 12:29:19 25° 263° (W) 12:32:48 437.405
SPROUT 24 Jan 12:30:37 12:34:34 36° 98° (E) 12:38:29 437.525
DUCHIFAT 1 24 Jan 12:30:54 12:34:22 25° 263° (W) 12:37:50 145.980
VELOX 1 24 Jan 12:35:24 12:39:44 57° 101° (E) 12:44:01 145.980
CUSAT 1 24 Jan 12:35:52 12:39:36 14° 62° (ENE) 12:43:08 437.405
NANOSAT C BR1 24 Jan 12:39:27 12:42:25 19° 265° (W) 12:45:22 145.865
UKube-1 24 Jan 12:43:20 12:46:38 21° 96° (E) 12:49:55 .
ESTCUBE 1 24 Jan 12:43:56 12:48:05 36° 288° (WNW) 12:52:11 437.505/2401.250
Cosmos 2491 24 Jan 12:44:36 12:52:47 41° 77° (ENE) 13:00:55 435.465 / 435.565
BUGSAT 1 24 Jan 12:46:28 12:50:23 49° 260° (W) 12:54:18 437.445
AIST 1 24 Jan 12:46:35 12:48:15 12° 86° (E) 12:49:55
YUBILEINY 24 Jan 12:47:23 12:52:46 18° 80° (E) 12:58:10 435.215
Oscar 19 24 Jan 12:50:46 12:55:35 41° 72° (ENE) 13:00:27 437.125/150
DX 1 24 Jan 12:52:40 12:56:45 39° 99° (E) 13:00:47 434.975-435.025
Cosmos 2504 24 Jan 13:10:16 13:12:26 11° 79° (E) 13:14:35 435.465 / 435.565
CUBEBUG 1 24 Jan 13:10:34 13:14:21 30° 288° (WNW) 13:18:04 437.445
AO-85 24 Jan 13:26:56 13:31:38 55° 301° (WNW) 13:36:00 145.980
50 SAT 24 Jan 13:35:02 13:37:59 25° 288° (WNW) 13:40:55 437.505
JUGNU 24 Jan 13:36:52 13:40:53 19° 176° (S) 13:44:54 437.505
AISAT 24 Jan 13:39:18 13:42:47 24° 290° (WNW) 13:46:16 437.250
Gurwin Techsat 1B 24 Jan 13:40:45 13:45:59 67° 75° (ENE) 13:51:16 435.225
TISAT 1 24 Jan 13:42:35 13:46:18 30° 98° (E) 13:50:00 437.305
AO-7 24 Jan 13:45:57 13:51:34 20° 56° (ENE) 13:57:10 29.400- 29.500
ITAMSAT 1 24 Jan 13:46:27 13:48:48 13° 63° (ENE) 13:51:09 435.822/435.867
SPROUT 24 Jan 14:07:37 14:10:08 16° 292° (WNW) 14:12:39 437.525
DANDE 24 Jan 14:07:47 14:14:48 30° 72° (ENE) 14:21:45 436.750
VELOX 1 24 Jan 14:14:33 14:15:38 11° 295° (WNW) 14:16:42 145.980
CUSAT 1 24 Jan 14:14:54 14:22:50 82° 82° (E) 14:29:35 437.405
UKube-1 24 Jan 14:19:00 14:22:35 26° 290° (WNW) 14:26:09 .
AIST 1 24 Jan 14:21:14 14:25:23 43° 280° (W) 14:29:31
ITUPSAT 1 24 Jan 14:26:38 14:29:53 18° 94° (E) 14:33:07 437.325
DX 1 24 Jan 14:30:06 14:32:33 15° 293° (WNW) 14:35:00 434.975-435.025
Oscar 19 24 Jan 14:31:17 14:35:00 20° 265° (W) 14:38:45 437.125/150
YUBILEINY 24 Jan 14:39:39 14:48:27 78° 277° (W) 14:57:21 435.215
Cosmos 2491 24 Jan 14:41:35 14:49:24 38° 273° (W) 14:57:16 435.465 / 435.565
Cosmos 2504 24 Jan 14:55:54 15:04:35 78° 93° (E) 15:12:44 435.465 / 435.565
BEESAT 24 Jan 14:57:06 15:01:36 40° 99° (E) 15:06:05 436.000
SWISSCUBE 24 Jan 14:59:08 15:03:47 48° 100° (E) 15:08:23 437.505
BEESAT 3 24 Jan 15:12:47 15:16:35 60° 116° (ESE) 15:20:27 437.485
SRMSAT 24 Jan 15:15:08 15:18:55 17° 171° (S) 15:22:43 437.500
O/OREOS (USA 219) 24 Jan 15:17:42 15:21:20 23° 63° (ENE) 15:24:58 437.305
TISAT 1 24 Jan 15:18:53 15:21:39 17° 291° (WNW) 15:24:26 437.305
ITAMSAT 1 24 Jan 15:22:33 15:27:39 65° 258° (WSW) 15:32:48 435.822/435.867
Gurwin Techsat 1B 24 Jan 15:24:23 15:26:19 12° 268° (W) 15:28:17 435.225
JUGNU 24 Jan 15:25:20 15:29:12 18° 186° (S) 15:33:05 437.505
BRITE-PL 24 Jan 15:32:53 15:35:44 14° 65° (ENE) 15:38:34 437.365/2234.400
AO-7 24 Jan 15:34:58 15:43:20 82° 253° (WSW) 15:51:45 29.400- 29.500
MOZHAYETS 4 24 Jan 15:48:51 15:53:17 43° 99° (E) 15:57:42
DANDE 24 Jan 15:49:46 15:57:47 57° 268° (W) 16:05:39 436.750
KKS-1 24 Jan 15:56:32 15:58:43 13° 94° (E) 16:00:53 437.445
CUSAT 1 24 Jan 15:59:16 16:03:30 16° 280° (W) 16:07:30 437.405
ITUPSAT 1 24 Jan 16:03:20 16:07:48 39° 288° (WNW) 16:12:14 437.325
BEESAT 2 24 Jan 16:07:41 16:11:36 74° 300° (WNW) 16:15:33 435.950
SO-50 24 Jan 16:18:41 16:23:09 60° 59° (ENE) 16:27:32 436.795
M-CUBED/EXP-1 PRIME 24 Jan 16:31:59 16:34:47 26° 103° (ESE) 16:37:35 437.505
BEESAT 24 Jan 16:35:49 16:39:02 18° 293° (WNW) 16:42:15 436.000
STARS 24 Jan 16:36:02 16:38:51 17° 95° (E) 16:41:38 437.465
SWISSCUBE 24 Jan 16:38:21 16:41:08 15° 294° (WNW) 16:43:53 437.505
YUBILEINY 24 Jan 16:43:18 16:46:41 12° 296° (WNW) 16:50:05 435.215
CUBESAT XI-V 24 Jan 16:47:35 16:51:30 26° 96° (E) 16:55:22 437.345
GOMX 1 24 Jan 16:48:57 16:53:33 30° 72° (ENE) 16:57:58 467.674
Cosmos 2504 24 Jan 16:53:05 16:58:35 18° 290° (WNW) 17:03:56 435.465 / 435.565
BEESAT 3 24 Jan 16:53:39 16:54:34 11° 312° (NW) 16:55:29 437.485
O/OREOS (USA 219) 24 Jan 16:56:53 17:00:39 26° 257° (WSW) 17:04:25 437.305
SRMSAT 24 Jan 17:03:10 17:07:25 20° 181° (S) 17:11:41 437.500
AUBIESAT-1 24 Jan 17:04:09 17:07:26 65° 105° (ESE) 17:10:43 437.475
DOVE 4 24 Jan 17:05:55 17:08:45 16° 68° (ENE) 17:11:32 437.250
BRITE-PL 24 Jan 17:07:52 17:13:33 72° 259° (WSW) 17:19:09 437.365/2234.400
CUTE-I 24 Jan 17:08:20 17:12:00 19° 66° (ENE) 17:15:40 437.470
JUGNU 24 Jan 17:16:02 17:17:30 11° 196° (SSW) 17:18:56 437.505
MOZHAYETS 4 24 Jan 17:27:17 17:30:02 16° 293° (WNW) 17:32:47
LilacSat-2 24 Jan 17:27:59 17:31:02 24° 72° (ENE) 17:34:05 437.200
KKS-1 24 Jan 17:31:14 17:35:25 43° 287° (WNW) 17:39:36 437.445
AO-7 24 Jan 17:33:54 17:37:03 12° 269° (W) 17:40:13 29.400- 29.500
HORYU 2 24 Jan 17:34:23 17:38:47 79° 257° (WSW) 17:43:12 437.375
NOAA 15 24 Jan 17:43:20 17:48:20 44° 72° (ENE) 17:53:21 137.62
Cubesat XI-IV 24 Jan 17:51:23 17:56:30 50° 72° (ENE) 18:01:37 437.490
HO-68 24 Jan 18:00:12 18:04:32 17° 59° (ENE) 18:08:52 435.675
CINEMA 3 24 Jan 18:01:33 18:02:53 11° 67° (ENE) 18:04:11 145.822/145.860
SO-50 24 Jan 18:02:04 18:03:01 11° 253° (WSW) 18:03:57 436.795
M-CUBED/EXP-1 PRIME 24 Jan 18:07:51 18:09:01 12° 296° (WNW) 18:10:11 437.505
STARS 24 Jan 18:11:17 18:15:14 34° 288° (WNW) 18:19:11 437.465
CUBESAT XI-V 24 Jan 18:24:56 18:28:43 25° 290° (WNW) 18:32:29 437.345
GOMX 1 24 Jan 18:26:56 18:31:30 28° 263° (W) 18:35:55 467.674
CANX-2 24 Jan 18:28:49 18:31:14 15° 68° (ENE) 18:33:39 2200.000
NOAA 18 24 Jan 18:34:03 18:39:31 72° 74° (ENE) 18:44:58 137.9125
DOVE 4 24 Jan 18:41:20 18:46:06 46° 261° (W) 18:50:37 437.250
CUTE-I 24 Jan 18:46:36 18:51:39 45° 261° (W) 18:56:44 437.470
AIST 2 24 Jan 18:47:39 18:51:43 78° 298° (WNW) 18:55:53 435.215
STRAND 1 24 Jan 18:51:14 18:54:02 15° 93° (E) 18:56:50 437.568
SRMSAT 24 Jan 18:52:32 18:55:55 15° 191° (SSW) 18:59:17 437.500
Cosmos 2499 24 Jan 18:56:20 19:03:57 40° 89° (E) 19:11:06 435.465 / 435.565
LilacSat-2 24 Jan 19:02:42 19:05:15 17° 265° (W) 19:07:49 437.200
NOAA 15 24 Jan 19:24:37 19:28:15 19° 266° (W) 19:31:55 137.62
GONETS M04 24 Jan 19:28:09 19:36:28 53° 90° (E) 19:44:51
CUTE 1.7 + AOD 2 24 Jan 19:32:08 19:36:21 74° 77° (ENE) 19:40:38 437.475
Cubesat XI-IV 24 Jan 19:33:30 19:36:47 16° 267° (W) 19:40:03 437.490
CINEMA 3 24 Jan 19:35:19 19:39:35 51° 260° (W) 19:43:43 145.822/145.860
HO-68 24 Jan 19:44:11 19:51:22 80° 255° (WSW) 19:58:37 435.675
CUBEBUG 2 24 Jan 19:57:24 20:01:27 55° 76° (ENE) 20:05:31 437.445
FUNcube-1 24 Jan 19:58:34 20:01:16 17° 69° (ENE) 20:04:01 145.935
COMPASS 1 24 Jan 19:59:11 20:03:20 64° 76° (ENE) 20:07:30 437.405
CANX-2 24 Jan 20:02:46 20:06:42 38° 262° (W) 20:10:43 2200.000
SEEDS 24 Jan 20:03:10 20:07:22 71° 258° (WSW) 20:11:37 437.485
AAUSAT CUBESAT 2 24 Jan 20:05:29 20:09:33 56° 76° (ENE) 20:13:40 437.432
UWE-3 24 Jan 20:15:28 20:19:30 55° 75° (ENE) 20:23:33 435.000/436.395/437.385
NOAA 18 24 Jan 20:18:41 20:20:36 12° 268° (W) 20:22:29 137.9125
ISS 24 Jan 20:22:24 20:25:38 67° 136° (SE) 20:28:53 145.825
ZACube-1 24 Jan 20:23:18 20:27:07 37° 73° (ENE) 20:30:58 437.345
STRAND 1 24 Jan 20:28:27 20:33:28 53° 287° (WNW) 20:38:27 437.568
DELFI C3 24 Jan 20:41:13 20:43:34 15° 69° (ENE) 20:45:56 145.870
Cosmos 2499 24 Jan 20:49:31 20:56:59 36° 283° (WNW) 21:04:02 435.465 / 435.565
Oscar 11 24 Jan 20:49:56 20:54:12 70° 77° (ENE) 20:58:32 145.826/435.025
RS-15 24 Jan 20:53:41 20:56:59 12° 95° (E) 21:00:20 29.354- 29.394
GONETS M04 24 Jan 21:26:19 21:33:33 29° 287° (WNW) 21:40:53
PRISM 24 Jan 21:26:27 21:30:00 28° 97° (E) 21:33:32 437.425
HUMSAT D 24 Jan 21:26:40 21:30:12 29° 72° (ENE) 21:33:48 437.325/437.525
FUNcube-1 24 Jan 21:33:39 21:37:16 29° 263° (W) 21:40:55 145.935
HO-68 24 Jan 21:39:06 21:39:56 10° 270° (W) 21:40:46 435.675
UNISAT 6 24 Jan 21:45:09 21:47:53 16° 94° (E) 21:50:36 437.425
TIGRISAT 24 Jan 21:56:26 21:59:43 19° 95° (E) 22:03:00 435.000
ISS 24 Jan 22:00:41 22:02:25 13° 331° (NNW) 22:04:08 145.825
ZACube-1 24 Jan 22:01:34 22:03:32 13° 267° (W) 22:05:30 437.345
AO-85 24 Jan 22:02:03 22:05:42 37° 57° (ENE) 22:09:21 145.980
ESTCUBE 1 24 Jan 22:06:21 22:07:15 11° 65° (ENE) 22:08:09 437.505/2401.250
ANTELSAT 24 Jan 22:12:19 22:16:22 32° 98° (E) 22:20:28 437.575/2403.000
DELFI C3 24 Jan 22:14:27 22:18:04 32° 262° (W) 22:21:42 145.870
JAS-2 24 Jan 22:20:15 22:25:48 21° 93° (E) 22:31:26 435.910
CUBEBUG 1 24 Jan 22:29:39 22:30:29 10° 65° (ENE) 22:31:20 437.445
PCSat 24 Jan 22:44:47 22:48:02 16° 104° (ESE) 22:51:18 145.827
BY70-1 24 Jan 22:55:16 22:58:18 82° 77° (ENE) 23:01:32 436.1900
RS-15 24 Jan 22:55:27 23:07:01 70° 113° (ESE) 23:19:09 29.354- 29.394
AISAT 24 Jan 22:57:36 23:00:04 15° 67° (ENE) 23:02:33 437.250
PRISM 24 Jan 23:02:17 23:05:03 18° 291° (WNW) 23:07:47 437.425
HUMSAT D 24 Jan 23:03:03 23:05:48 17° 266° (W) 23:08:36 437.325/437.525
PHONESAT 2.4 24 Jan 23:12:39 23:14:39 31° 150° (SSE) 23:16:40 2401.200-2431.200
UNISAT 6 24 Jan 23:20:27 23:24:40 40° 287° (WNW) 23:28:57 437.425
SPROUT 24 Jan 23:21:14 23:24:05 18° 69° (ENE) 23:26:56 437.525
VELOX 1 24 Jan 23:29:00 23:32:56 32° 71° (ENE) 23:36:52 145.980
TIGRISAT 24 Jan 23:32:23 23:36:22 32° 288° (WNW) 23:40:26 435.000
BEESAT 3 24 Jan 23:34:41 23:36:24 12° 49° (NE) 23:38:08 437.485
UKube-1 24 Jan 23:35:52 23:37:31 12° 66° (ENE) 23:39:09 .
ESTCUBE 1 24 Jan 23:38:58 23:43:27 64° 259° (W) 23:47:59 437.505/2401.250
AO-85 24 Jan 23:43:56 23:45:43 13° 251° (WSW) 23:47:29 145.980
DX 1 24 Jan 23:44:58 23:48:20 22° 69° (ENE) 23:51:42 434.975-435.025
QB50P1 24 Jan 23:46:10 23:49:54 30° 97° (E) 23:53:38 145.935-145.965
ANTELSAT 24 Jan 23:49:32 23:52:50 20° 291° (WNW) 23:56:11 437.575/2403.000
POLYITAN 1 24 Jan 23:51:50 23:55:45 36° 98° (E) 23:59:40 437.675
QB50P2 24 Jan 23:53:13 23:57:13 40° 99° (E) 00:01:13 145.880/145.840
CUBEBUG 1 25 Jan 00:01:52 00:06:12 60° 259° (W) 00:10:34 437.445
JAS-2 25 Jan 00:03:37 00:11:05 69° 286° (WNW) 00:18:53 435.910
50 SAT 25 Jan 00:05:03 00:08:34 61° 76° (ENE) 00:12:07 437.505
POPSAT HIP 1 25 Jan 00:13:15 00:17:27 65° 101° (E) 00:21:39 437.405
DUCHIFAT 1 25 Jan 00:17:36 00:21:47 62° 101° (ESE) 00:25:57 145.980
PCSat 25 Jan 00:25:37 00:30:54 54° 299° (WNW) 00:36:13 145.827
NANOSAT C BR1 25 Jan 00:25:50 00:30:05 89° 111° (ESE) 00:34:19 145.865
BEESAT 2 25 Jan 00:29:29 00:32:32 20° 53° (NE) 00:35:33 435.950
TISAT 1 25 Jan 00:31:45 00:34:04 15° 68° (ENE) 00:36:24 437.305
BUGSAT 1 25 Jan 00:31:54 00:35:26 28° 98° (E) 00:38:57 437.445
AISAT 25 Jan 00:31:56 00:36:08 42° 261° (W) 00:40:21 437.250
AIST 1 25 Jan 00:32:11 00:35:54 29° 78° (ENE) 00:39:35
PHONESAT 2.4 25 Jan 00:46:25 00:48:21 26° 344° (NNW) 00:50:18 2401.200-2431.200
YUBILEINY 25 Jan 00:54:54 01:03:14 45° 77° (ENE) 01:11:27 435.215
Cosmos 2504 25 Jan 00:55:16 01:00:06 19° 70° (ENE) 01:04:51 435.465 / 435.565
SPROUT 25 Jan 00:55:58 00:59:44 31° 262° (W) 01:03:31 437.525
VELOX 1 25 Jan 01:06:16 01:09:23 19° 265° (W) 01:12:31 145.980
Oscar 19 25 Jan 01:06:58 01:10:35 19° 94° (E) 01:14:09 437.125/150
UKube-1 25 Jan 01:08:52 01:13:04 50° 260° (W) 01:17:16 .
RS-15 25 Jan 01:09:50 01:20:26 35° 315° (NW) 01:31:26 29.354- 29.394
BEESAT 3 25 Jan 01:10:25 01:14:19 52° 244° (WSW) 01:18:11 437.485
DX 1 25 Jan 01:20:40 01:24:21 26° 263° (W) 01:28:02 434.975-435.025
QB50P1 25 Jan 01:22:31 01:25:25 18° 291° (WNW) 01:28:19 145.935-145.965
POLYITAN 1 25 Jan 01:28:40 01:31:13 16° 292° (WNW) 01:33:46 437.675
QB50P2 25 Jan 01:30:25 01:32:38 14° 293° (WNW) 01:34:51 145.880/145.840
ITUPSAT 1 25 Jan 01:30:42 01:33:13 14° 65° (ENE) 01:35:44 437.325
CUSAT 1 25 Jan 01:34:42 01:35:37 10° 77° (ENE) 01:36:34 437.405
Cosmos 2491 25 Jan 01:40:44 01:49:04 53° 90° (E) 01:57:25 435.465 / 435.565
JAS-2 25 Jan 01:52:30 01:54:53 12° 301° (WNW) 01:57:18 435.910
BEESAT 25 Jan 01:59:59 02:04:07 30° 70° (ENE) 02:08:15 436.000
Gurwin Techsat 1B 25 Jan 02:01:02 02:05:54 36° 98° (E) 02:10:44 435.225
SWISSCUBE 25 Jan 02:01:57 02:06:16 36° 71° (ENE) 02:10:36 437.505
TISAT 1 25 Jan 02:05:31 02:09:21 36° 261° (W) 02:13:13 437.305
BEESAT 2 25 Jan 02:06:48 02:10:18 29° 248° (WSW) 02:13:48 435.950
BUGSAT 1 25 Jan 02:07:48 02:10:33 18° 291° (WNW) 02:13:19 437.445
AIST 1 25 Jan 02:10:28 02:13:12 17° 272° (W) 02:15:56
PHONESAT 2.4 25 Jan 02:21:01 02:22:27 15° 1° (N) 02:23:53 2401.200-2431.200
Oscar 19 25 Jan 02:45:11 02:50:00 41° 289° (WNW) 02:54:47 437.125/150
Cosmos 2504 25 Jan 02:46:53 02:54:00 62° 268° (W) 03:01:01 435.465 / 435.565
MOZHAYETS 4 25 Jan 02:47:18 02:51:07 27° 70° (ENE) 02:54:57
YUBILEINY 25 Jan 02:52:06 02:59:42 34° 274° (W) 03:07:15 435.215
ISS 25 Jan 02:53:55 02:56:04 16° 31° (NNE) 02:58:13 145.825
ITUPSAT 1 25 Jan 03:05:57 03:10:34 51° 260° (W) 03:15:14 437.325
CUSAT 1 25 Jan 03:10:40 03:15:57 86° 278° (W) 03:22:52 437.405
AIST 2 25 Jan 03:12:53 03:16:16 22° 53° (NE) 03:19:37 435.215
DANDE 25 Jan 03:13:13 03:16:19 20° 83° (E) 03:20:04 436.750
M-CUBED/EXP-1 PRIME 25 Jan 03:14:10 03:17:37 24° 67° (ENE) 03:20:53 437.505
RS-15 25 Jan 03:33:02 03:38:30 14° 348° (NNW) 03:44:00 29.354- 29.394
BEESAT 25 Jan 03:38:08 03:41:51 23° 264° (W) 03:45:34 436.000
Cosmos 2491 25 Jan 03:38:58 03:46:10 29° 287° (WNW) 03:53:26 435.465 / 435.565
ITAMSAT 1 25 Jan 03:39:04 03:44:14 61° 101° (ESE) 03:49:23 435.822/435.867
SWISSCUBE 25 Jan 03:40:46 03:44:06 19° 265° (W) 03:47:28 437.505
AO-7 25 Jan 03:41:12 03:49:04 44° 101° (E) 03:56:50 29.400- 29.500
Gurwin Techsat 1B 25 Jan 03:41:24 03:45:36 24° 292° (WNW) 03:49:47 435.225
AUBIESAT-1 25 Jan 03:45:40 03:49:42 45° 70° (ENE) 03:53:28 437.475
CUBESAT XI-V 25 Jan 03:47:49 03:50:57 18° 68° (ENE) 03:54:06 437.345
PHONESAT 2.4 25 Jan 03:54:31 03:56:31 29° 16° (NNE) 03:58:32 2401.200-2431.200
MOZHAYETS 4 25 Jan 04:24:30 04:28:10 24° 264° (W) 04:31:52
KKS-1 25 Jan 04:24:57 04:29:24 78° 258° (WSW) 04:33:50 437.445
ISS 25 Jan 04:29:35 04:32:43 46° 227° (SW) 04:35:50 145.825
M-CUBED/EXP-1 PRIME 25 Jan 04:48:28 04:51:57 23° 258° (WSW) 04:55:15 437.505
AIST 2 25 Jan 04:51:03 04:54:42 28° 248° (WSW) 04:58:20 435.215
DANDE 25 Jan 04:55:06 04:58:41 27° 290° (WNW) 05:03:13 436.750
CUSAT 1 25 Jan 04:57:35 04:59:19 11° 300° (WNW) 05:01:09 437.405
STARS 25 Jan 05:03:28 05:07:48 64° 258° (WSW) 05:12:08 437.465
BRITE-PL 25 Jan 05:17:40 05:22:06 49° 98° (E) 05:26:16 437.365/2234.400
ITAMSAT 1 25 Jan 05:20:26 05:23:08 14° 296° (WNW) 05:25:50 435.822/435.867
AUBIESAT-1 25 Jan 05:22:36 05:24:09 12° 261° (W) 05:25:41 437.475
CUBESAT XI-V 25 Jan 05:23:37 05:27:59 39° 262° (W) 05:32:24 437.345
O/OREOS (USA 219) 25 Jan 05:25:34 05:29:54 53° 106° (ESE) 05:34:16 437.305
PHONESAT 2.4 25 Jan 05:28:14 05:30:09 26° 211° (SSW) 05:32:05 2401.200-2431.200
HORYU 2 25 Jan 05:29:23 05:33:06 25° 97° (E) 05:36:48 437.375
AO-7 25 Jan 05:34:09 05:41:35 38° 297° (WNW) 05:49:00 29.400- 29.500
GONETS M04 25 Jan 05:44:10 05:50:29 21° 69° (ENE) 05:56:45
RS-15 25 Jan 05:50:40 05:58:40 19° 27° (NNE) 06:06:31 29.354- 29.394
NOAA 15 25 Jan 06:02:53 06:07:00 23° 95° (E) 06:11:05 137.62
STRAND 1 25 Jan 06:03:57 06:06:47 15° 65° (ENE) 06:09:39 437.568
Cubesat XI-IV 25 Jan 06:12:46 06:17:16 27° 97° (E) 06:21:47 437.490
SO-50 25 Jan 06:28:57 06:33:30 48° 115° (ESE) 06:38:00 436.795
GOMX 1 25 Jan 06:32:16 06:36:29 61° 284° (WNW) 06:40:33 467.674
LilacSat-2 25 Jan 06:38:04 06:41:55 62° 100° (E) 06:45:45 437.200
DOVE 4 25 Jan 06:43:47 06:47:53 60° 101° (E) 06:52:01 437.250
Cosmos 2499 25 Jan 06:44:14 06:51:15 64° 81° (E) 06:58:19 435.465 / 435.565
BRITE-PL 25 Jan 06:58:05 07:00:01 13° 296° (WNW) 07:01:56 437.365/2234.400
NOAA 18 25 Jan 07:00:06 07:05:14 41° 99° (E) 07:10:21 137.9125
HORYU 2 25 Jan 07:05:55 07:09:29 24° 291° (WNW) 07:13:04 437.375
CUTE-I 25 Jan 07:07:03 07:12:25 84° 283° (WNW) 07:17:46 437.470
O/OREOS (USA 219) 25 Jan 07:07:45 07:09:37 12° 302° (WNW) 07:11:29 437.305
HO-68 25 Jan 07:17:08 07:22:44 24° 95° (E) 07:28:16 435.675
CUTE 1.7 + AOD 2 25 Jan 07:21:51 07:24:39 17° 94° (E) 07:27:26 437.475
CINEMA 3 25 Jan 07:33:03 07:37:09 45° 99° (E) 07:41:26 145.822/145.860
GONETS M04 25 Jan 07:39:13 07:48:01 72° 267° (W) 07:56:47
STRAND 1 25 Jan 07:40:30 07:45:27 54° 259° (W) 07:50:28 437.568
NOAA 15 25 Jan 07:41:58 07:46:48 37° 290° (WNW) 07:51:37 137.62
COMPASS 1 25 Jan 07:47:19 07:49:23 13° 93° (E) 07:51:27 437.405
CANX-2 25 Jan 07:51:09 07:55:17 46° 99° (E) 07:59:23 2200.000
SEEDS 25 Jan 07:51:13 07:54:42 24° 96° (E) 07:58:09 437.485
CUBEBUG 2 25 Jan 07:52:28 07:55:19 16° 94° (E) 07:58:12 437.445
Cubesat XI-IV 25 Jan 07:52:37 07:57:16 31° 291° (WNW) 08:01:55 437.490
AAUSAT CUBESAT 2 25 Jan 07:53:34 07:54:58 11° 92° (E) 07:56:23 437.432
RS-15 25 Jan 08:02:32 08:14:41 58° 55° (NE) 08:26:16 29.354- 29.394
UWE-3 25 Jan 08:09:28 08:12:14 16° 94° (E) 08:15:01 435.000/436.395/437.385
SO-50 25 Jan 08:10:58 08:14:11 18° 310° (NW) 08:17:22 436.795
PRISM 25 Jan 08:13:28 08:15:32 14° 67° (ENE) 08:17:36 437.425
ZACube-1 25 Jan 08:17:30 08:18:28 11° 92° (E) 08:19:27 437.345
